GW4474 Weather Reports


time (UTC)temp
C
wind
direction
speed
KPH
gust
KPH
rain 1hr
cm
rain 24hr
cm
rain mn
cm
humidity
%
barometer
mb
20260508020519 8 0.0 0.0 0.00 0.00 0.00 77 1015.1
20260508015516 8 0.0 0.0 0.00 0.00 0.00 75 1015.0
20260508014613 9 0.0 0.0 0.00 0.00 0.00 74 1015.0
20260508013610 10 0.0 0.0 0.00 0.00 0.00 74 1015.0
20260508012607 10 0.0 0.0 0.00 0.00 0.00 72 1015.0
20260508011623 10 0.0 0.0 0.00 0.00 0.00 72 1015.1
20260508010620 11 0.0 0.0 0.00 0.00 0.00 71 1015.1
20260508005557 11 0.0 0.0 0.00 0.00 0.00 70 1015.2
20260508004553 11 0.0 0.0 0.00 0.00 0.00 70 1015.0
20260508003610 11 0.0 0.0 0.00 0.00 0.00 70 1015.1
20260508002607 11 0.0 0.0 0.00 0.00 0.00 71 1015.1
20260508001544 11 0.0 0.0 0.00 0.00 0.00 71 1015.2
20260508000541 11 0.0 0.0 0.00 0.00 0.00 71 1015.3
20260507235558 11 0.0 0.0 0.00 0.00 0.00 71 1015.3
20260507234535 11 0.0 0.0 0.00 0.00 0.00 70 1015.2
20260507233531 11 0.0 0.0 0.00 0.00 0.00 69 1015.1
20260507232528 11 0.0 0.0 0.00 0.00 0.00 69 1015.2
20260507231525 11 0.0 0.0 0.00 0.00 0.00 69 1015.1
20260507230521 11 0.0 0.0 0.00 0.00 0.00 68 1015.1
20260507225519 12 0.0 0.0 0.00 0.00 0.00 67 1015.0
20260507224516 12 0.0 0.0 0.00 0.00 0.00 66 1014.9
20260507223612 12 0.0 0.0 0.00 0.00 0.00 66 1014.8
20260507222629 12 0.0 0.0 0.00 0.00 0.00 67 1014.7
20260507221606 12 0.0 0.0 0.00 0.00 0.00 67 1014.7
20260507220603 12 0.0 0.0 0.00 0.00 0.00 67 1014.7
20260507215559 12 0.0 0.0 0.00 0.00 0.00 67 1014.6
20260507214617 12 0.0 0.0 0.00 0.00 0.00 67 1014.6
20260507213553 12 0.0 0.0 0.00 0.00 0.00 67 1014.5
20260507212550 12 0.0 0.0 0.00 0.00 0.00 66 1014.4
20260507211548 12 0.0 0.0 0.00 0.00 0.00 66 1014.3
20260507210544 12 0.0 0.0 0.00 0.00 0.00 66 1014.1
20260507205601 12 0.0 0.0 0.00 0.00 0.00 65 1014.1
20260507204538 12 0.0 0.0 0.00 0.00 0.00 64 1014.0
20260507203614 12 0.0 0.0 0.00 0.00 0.00 64 1013.9
20260507202552 12 0.0 0.0 0.00 0.00 0.00 63 1013.8
20260507201528 13 0.0 0.0 0.00 0.00 0.00 63 1013.8
20260507200545 13 0.0 0.0 0.00 0.00 0.00 63 1013.7
20260507195521 13 0.0 0.0 0.00 0.00 0.00 63 1013.5
20260507194538 13 0.0 0.0 0.00 0.00 0.00 62 1013.5
20260507193535 13 0.0 0.0 0.00 0.00 0.00 62 1013.4
20260507192632 13 0.0 0.0 0.00 0.00 0.00 60 1013.3
20260507191608 14 0.0 0.0 0.00 0.00 0.00 59 1013.2
20260507190606 14 0.0 0.0 0.00 0.00 0.00 58 1013.1
20260507185602 15 0.0 0.0 0.00 0.00 0.00 57 1013.0
20260507184619 15 0.0 0.0 0.00 0.00 0.00 56 1013.0
20260507183556 15 0.0 0.0 0.00 0.00 0.00 53 1012.9
20260507182613 15 0.0 0.0 0.00 0.00 0.00 52 1012.9
20260507181549 15 0.0 0.0 0.00 0.00 0.00 52 1012.8
20260507180546 15 0.0 0.0 0.00 0.00 0.00 51 1012.8
20260507175543 15 0.0 0.0 0.00 0.00 0.00 51 1012.7
20260507174539 15 0.0 0.0 0.00 0.00 0.00 50 1012.8
20260507173536 15 0.0 0.0 0.00 0.00 0.00 51 1012.8
20260507172533 15 0.0 0.0 0.00 0.00 0.00 58 1012.7
20260507171530 15 0.0 0.0 0.00 0.00 0.00 60 1012.8
20260507170527 15 0.0 0.0 0.00 0.00 0.00 61 1012.9
20260507165524 15 0.0 0.0 0.00 0.00 0.00 61 1013.0
20260507164520 15 0.0 0.0 0.00 0.00 0.00 61 1013.0
20260507163517 15 0.0 0.0 0.00 0.00 0.00 59 1013.0
20260507162614 15 0.0 0.0 0.00 0.00 0.00 58 1013.0
20260507161612 16 0.0 0.0 0.00 0.00 0.00 52 1012.8
20260507160608 16 0.0 0.0 0.00 0.00 0.00 50 1012.9
20260507155605 16 0.0 0.0 0.00 0.00 0.00 45 1012.9
20260507154602 16 0.0 0.0 0.00 0.00 0.00 45 1012.9
20260507153639 17 0.0 0.0 0.00 0.00 0.00 43 1012.9
20260507152556 16 0.0 0.0 0.00 0.00 0.00 43 1012.9
20260507151552 16 0.0 0.0 0.00 0.00 0.00 42 1012.9
20260507150549 17 0.0 0.0 0.00 0.00 0.00 42 1013.0
20260507145546 16 0.0 0.0 0.00 0.00 0.00 43 1013.0
20260507144543 17 0.0 0.0 0.00 0.00 0.00 40 1013.1
20260507143539 17 0.0 0.0 0.00 0.00 0.00 44 1013.1
20260507142536 16 0.0 0.0 0.00 0.00 0.00 45 1013.2
20260507141533 16 0.0 0.0 0.00 0.00 0.00 48 1013.3
20260507140530 16 0.0 0.0 0.00 0.00 0.00 52 1013.3
20260507135526 16 0.0 0.0 0.00 0.00 0.00 53 1013.3
20260507134523 17 0.0 0.0 0.00 0.00 0.00 48 1013.4
20260507133520 17 0.0 0.0 0.00 0.00 0.00 39 1013.4
20260507132517 18 0.0 0.0 0.00 0.00 0.00 37 1013.3
20260507131614 18 0.0 0.0 0.00 0.00 0.00 36 1013.2
20260507130611 18 0.0 0.0 0.00 0.00 0.00 37 1013.3
20260507125607 17 0.0 0.0 0.00 0.00 0.00 38 1013.3
20260507124604 16 0.0 0.0 0.00 0.00 0.00 40 1013.4
20260507123601 16 0.0 0.0 0.00 0.00 0.00 41 1013.5
20260507122558 17 0.0 0.0 0.00 0.00 0.00 40 1013.5
20260507121615 16 0.0 0.0 0.00 0.00 0.00 41 1013.6
20260507120611 17 0.0 0.0 0.00 0.00 0.00 40 1013.7
20260507115548 17 0.0 0.0 0.00 0.00 0.00 39 1013.7
20260507114606 17 0.0 0.0 0.00 0.00 0.00 41 1013.7
20260507113542 16 0.0 0.0 0.00 0.00 0.00 43 1013.8
20260507112539 16 0.0 0.0 0.00 0.00 0.00 48 1013.8
20260507111555 15 0.0 0.0 0.00 0.00 0.00 49 1014.0
20260507110613 15 0.0 0.0 0.00 0.00 0.00 48 1013.9
20260507105529 15 0.0 0.0 0.00 0.00 0.00 48 1013.9
20260507104527 15 0.0 0.0 0.00 0.00 0.00 50 1013.9
20260507103523 15 0.0 0.0 0.00 0.00 0.00 45 1014.0
20260507102520 16 0.0 0.0 0.00 0.00 0.00 42 1014.1
20260507101517 17 0.0 0.0 0.00 0.00 0.00 40 1014.1
20260507100614 17 0.0 0.0 0.00 0.00 0.00 45 1014.2
20260507095610 15 0.0 0.0 0.00 0.00 0.00 44 1014.2
20260507094628 16 0.0 0.0 0.00 0.00 0.00 41 1014.3
20260507093604 17 0.0 0.0 0.00 0.00 0.00 38 1014.3
20260507092621 18 0.0 0.0 0.00 0.00 0.00 41 1014.3
20260507091557 16 0.0 0.0 0.00 0.00 0.00 48 1014.2
20260507090554 15 0.0 0.0 0.00 0.00 0.00 48 1014.3
20260507085552 15 0.0 0.0 0.00 0.00 0.00 49 1014.3
20260507084548 15 0.0 0.0 0.00 0.00 0.00 43 1014.3
20260507083545 16 0.0 0.0 0.00 0.00 0.00 41 1014.4
20260507082622 17 0.0 0.0 0.00 0.00 0.00 38 1014.3
20260507081538 16 0.0 0.0 0.00 0.00 0.00 42 1014.4
20260507080535 16 0.0 0.0 0.00 0.00 0.00 51 1014.3
20260507075532 13 0.0 0.0 0.00 0.00 0.00 54 1014.3
20260507074529 13 0.0 0.0 0.00 0.00 0.00 57 1014.1
20260507073526 13 0.0 0.0 0.00 0.00 0.00 58 1014.2
20260507072522 13 0.0 0.0 0.00 0.00 0.00 60 1014.1
20260507071519 12 0.0 0.0 0.00 0.00 0.00 62 1014.0
20260507070536 12 0.0 0.0 0.00 0.00 0.00 64 1014.0
20260507065613 11 0.0 0.0 0.00 0.00 0.00 68 1014.0
20260507064610 11 0.0 0.0 0.00 0.00 0.00 70 1014.0
20260507063607 11 0.0 0.0 0.00 0.00 0.00 71 1014.0
20260507062603 10 0.0 0.0 0.00 0.00 0.00 71 1014.0
20260507061620 10 0.0 0.0 0.00 0.00 0.00 71 1014.0
20260507060557 10 0.0 0.0 0.00 0.00 0.00 71 1014.0
20260507055553 10 0.0 0.0 0.00 0.00 0.00 71 1013.9
20260507054551 10 0.0 0.0 0.00 0.00 0.00 71 1013.9
20260507053607 10 0.0 0.0 0.00 0.00 0.00 71 1013.9
20260507052544 10 0.0 0.0 0.00 0.00 0.00 70 1013.9
20260507051541 10 0.0 0.0 0.00 0.00 0.00 70 1014.0
20260507050618 10 0.0 0.0 0.00 0.00 0.00 70 1013.9
20260507045534 10 0.0 0.0 0.00 0.00 0.00 69 1013.9
20260507044612 10 0.0 0.0 0.00 0.00 0.00 69 1013.8
20260507043528 10 0.0 0.0 0.00 0.00 0.00 69 1013.8
20260507042525 10 0.0 0.0 0.00 0.00 0.00 68 1013.8
20260507041521 10 0.0 0.0 0.00 0.00 0.00 68 1013.8
20260507040518 10 0.0 0.0 0.00 0.00 0.00 68 1013.8
20260507035515 10 0.0 0.0 0.00 0.00 0.00 69 1013.9
20260507034612 11 0.0 0.0 0.00 0.00 0.00 68 1013.8
20260507033609 11 0.0 0.0 0.00 0.00 0.00 68 1013.9
20260507032606 11 0.0 0.0 0.00 0.00 0.00 70 1014.0
20260507031602 11 0.0 0.0 0.00 0.00 0.00 69 1014.0
20260507030559 11 0.0 0.0 0.00 0.00 0.00 68 1013.9
20260507025556 11 0.0 0.0 0.00 0.00 0.00 68 1013.9
20260507024613 11 0.0 0.0 0.00 0.00 0.00 68 1014.0
20260507023550 11 0.0 0.0 0.00 0.00 0.00 69 1014.0
20260507022547 11 0.0 0.0 0.00 0.00 0.00 69 1014.1
20260507021544 11 0.0 0.0 0.00 0.00 0.00 69 1014.1